Torna al catalogo

STARLINK-31534

AttivoComunicazioniVLEO
NORAD 59398·PAYLOAD·🇺🇸 United States

Lanciato Apr 5, 2024 da Cape Canaveral Space Force Station

Loading…

Prossimi Passaggi (prossime 24 ore)

TLE

AggiornatoSource: CelesTrak SupGP

Epoca: Sep 14, 2026, 21:09 UTC

1 59398C 24064A   26257.88173611  .00041369  00000+0  14984-2 0  2574
2 59398  43.0029  67.3472 0001591 273.2736 119.6811 15.27557735    14

Traccia STARLINK-31534 in tempo reale con AllMySat

Download on the App Store